KC3FDL Weather Reports


Display with metric or nautical units.
time (UTC)temp
F
wind
direction
speed
MPH
gust
MPH
rain 1hr
in
rain 24hr
in
rain mn
in
humidity
%
barometer
mb
20260906190516 102 126 2.0 8.0 0.00 0.00 0.00 34 1013.5
20260906185516 101 107 2.0 8.0 0.00 0.00 0.00 36 1013.6
20260906184517 101 122 4.0 9.0 0.00 0.00 0.00 35 1013.7
20260906183517 102 130 5.0 9.0 0.00 0.00 0.00 35 1014.0
20260906182516 102 290 4.0 7.0 0.00 0.00 0.00 35 1014.2
20260906181537 101 112 3.0 7.0 0.00 0.00 0.00 35 1014.5
20260906180516 102 236 2.0 7.0 0.00 0.00 0.00 35 1014.8
20260906175516 100 158 2.0 6.0 0.00 0.00 0.00 36 1015.0
20260906174517 100 163 3.0 8.0 0.00 0.00 0.00 37 1015.1
20260906173516 100 118 4.0 9.0 0.00 0.00 0.00 38 1015.3
20260906172517 100 312 1.0 7.0 0.00 0.00 0.00 37 1015.4
20260906171516 100 201 2.0 6.0 0.00 0.00 0.00 39 1015.5
20260906170516 99 341 2.0 6.0 0.00 0.00 0.00 40 1015.6
20260906165517 99 153 1.0 7.0 0.00 0.00 0.00 41 1015.7
20260906164516 99 248 3.0 8.0 0.00 0.00 0.00 41 1015.8
20260906163537 97 93 1.0 7.0 0.00 0.00 0.00 43 1015.9
20260906162516 97 306 2.0 6.0 0.00 0.00 0.00 43 1015.9
20260906161516 97 302 2.0 6.0 0.00 0.00 0.00 43 1015.9
20260906160537 96 325 1.0 4.0 0.00 0.00 0.00 44 1015.9
20260906155516 95 75 1.0 4.0 0.00 0.00 0.00 45 1015.9
20260906154516 95 273 1.0 4.0 0.00 0.00 0.00 46 1015.9
20260906153516 94 321 2.0 6.0 0.00 0.00 0.00 48 1015.9
20260906152517 93 290 2.0 4.0 0.00 0.00 0.00 51 1015.8
20260906151516 92 241 1.0 4.0 0.00 0.00 0.00 54 1015.7
20260906150517 90 284 1.0 4.0 0.00 0.00 0.00 56 1015.7
20260906145537 90 290 2.0 4.0 0.00 0.00 0.00 57 1015.6
20260906144516 89 241 2.0 4.0 0.00 0.00 0.00 57 1015.6
20260906143516 87 156 2.0 5.0 0.00 0.00 0.00 60 1015.6
20260906142516 87 204 1.0 4.0 0.00 0.00 0.00 60 1015.6
20260906141516 86 164 0.0 3.0 0.00 0.00 0.00 63 1015.5
20260906140516 85 121 1.0 4.0 0.00 0.00 0.00 64 1015.4
20260906135516 84 162 2.0 5.0 0.00 0.00 0.00 65 1015.2
20260906134516 83 166 3.0 5.0 0.00 0.00 0.00 67 1015.2
20260906133516 83 158 3.0 5.0 0.00 0.00 0.00 68 1015.2
20260906132516 82 121 2.0 4.0 0.00 0.00 0.00 70 1015.1
20260906131516 81 151 2.0 4.0 0.00 0.00 0.00 72 1015.1
20260906130516 80 127 1.0 3.0 0.00 0.00 0.00 73 1015.1
20260906125516 80 135 1.0 2.0 0.00 0.00 0.00 74 1015.0
20260906124518 79 153 1.0 4.0 0.00 0.00 0.00 76 1014.9
20260906123518 79 154 1.0 2.0 0.00 0.00 0.00 77 1014.8
20260906122518 79 154 1.0 2.0 0.00 0.00 0.00 77 1014.6
20260906121538 78 154 0.0 2.0 0.00 0.00 0.00 77 1014.6
20260906120518 79 124 1.0 3.0 0.00 0.00 0.00 77 1014.4
20260906115516 79 122 1.0 3.0 0.00 0.00 0.00 77 1014.4
20260906114539 79 121 1.0 2.0 0.00 0.00 0.00 76 1014.2
20260906113518 79 118 1.0 2.0 0.00 0.00 0.00 75 1014.3
20260906112539 80 118 0.0 1.0 0.00 0.00 0.00 73 1014.2
20260906111518 79 0.0 0.0 0.00 0.00 0.00 74 1014.1
20260906110538 80 118 0.0 2.0 0.00 0.00 0.00 74 1014.1
20260906105519 80 0.0 0.0 0.00 0.00 0.00 73 1014.0
20260906104518 79 0.0 0.0 0.00 0.00 0.00 74 1013.9
20260906103518 79 0.0 0.0 0.00 0.00 0.00 74 1014.0
20260906102558 80 0.0 1.0 0.00 0.00 0.00 73 1014.1
20260906101518 80 0.0 1.0 0.00 0.00 0.00 74 1014.2
20260906100538 80 118 0.0 1.0 0.00 0.00 0.00 74 1014.1
20260906095518 80 0.0 0.0 0.00 0.00 0.00 73 1014.1
20260906094518 81 118 0.0 2.0 0.00 0.00 0.00 73 1014.1
20260906093518 80 120 0.0 1.0 0.00 0.00 0.00 73 1014.0
20260906092518 80 120 0.0 2.0 0.00 0.00 0.00 74 1013.9
20260906091518 81 152 0.0 2.0 0.00 0.00 0.00 73 1013.9
20260906090519 81 152 0.0 2.0 0.00 0.00 0.00 72 1013.9
20260906085518 81 0.0 0.0 0.00 0.00 0.00 70 1013.7
20260906084518 81 0.0 0.0 0.00 0.00 0.00 70 1013.5
20260906083518 82 152 0.0 1.0 0.00 0.00 0.00 69 1013.5
20260906082519 82 152 0.0 1.0 0.00 0.00 0.00 68 1013.4
20260906081537 83 0.0 0.0 0.00 0.00 0.00 68 1013.3
20260906080558 83 0.0 0.0 0.00 0.00 0.00 66 1013.3
20260906075518 82 0.0 0.0 0.00 0.00 0.00 67 1013.3
20260906074517 82 0.0 0.0 0.00 0.00 0.00 67 1013.4
20260906073518 83 0.0 0.0 0.00 0.00 0.00 68 1013.4
20260906072517 82 0.0 0.0 0.00 0.00 0.00 69 1013.4
20260906071517 83 0.0 0.0 0.00 0.00 0.00 68 1013.5
20260906070517 83 0.0 0.0 0.00 0.00 0.00 67 1013.4
20260906065518 83 0.0 0.0 0.00 0.00 0.00 67 1013.4
20260906064518 83 0.0 0.0 0.00 0.00 0.00 66 1013.5
20260906063537 84 0.0 0.0 0.00 0.00 0.00 65 1013.5
20260906062517 84 152 0.0 2.0 0.00 0.00 0.00 64 1013.5
20260906061517 84 142 0.0 1.0 0.00 0.00 0.00 63 1013.5
20260906060518 85 0.0 10.0 0.00 0.00 0.00 62 1013.7
20260906055517 87 152 2.0 9.0 0.00 0.00 0.00 58 1013.7
20260906054518 87 11 1.0 3.0 0.00 0.00 0.00 57 1013.6
20260906053517 87 0.0 0.0 0.00 0.00 0.00 57 1013.5
20260906052517 87 0.0 0.0 0.00 0.00 0.00 58 1013.6
20260906051518 87 0.0 0.0 0.00 0.00 0.00 56 1013.5
20260906050517 87 0.0 0.0 0.00 0.00 0.00 57 1013.5
20260906045517 87 0.0 0.0 0.00 0.00 0.00 58 1013.4
20260906044539 87 0.0 0.0 0.00 0.00 0.00 59 1013.4
20260906043517 87 166 0.0 1.0 0.00 0.00 0.00 58 1013.5
20260906042618 87 0.0 1.0 0.00 0.00 0.00 56 1013.5
20260906041517 88 164 0.0 1.0 0.00 0.00 0.00 54 1013.5
20260906040517 88 0.0 0.0 0.00 0.00 0.00 53 1013.5
20260906035517 89 0.0 0.0 0.00 0.00 0.00 52 1013.5
20260906034517 89 0.0 0.0 0.00 0.00 0.00 51 1013.5
20260906033518 89 0.0 0.0 0.00 0.00 0.00 51 1013.3
20260906032517 89 0.0 0.0 0.00 0.00 0.00 52 1013.1
20260906031517 90 0.0 0.0 0.00 0.00 0.00 50 1013.0
20260906030517 90 0.0 0.0 0.00 0.00 0.00 51 1012.9
20260906025517 90 0.0 0.0 0.00 0.00 0.00 50 1013.0
20260906024518 91 0.0 0.0 0.00 0.00 0.00 50 1012.9
20260906023518 90 0.0 0.0 0.00 0.00 0.00 51 1012.7
20260906022517 91 0.0 0.0 0.00 0.00 0.00 50 1012.5
20260906021517 91 0.0 0.0 0.00 0.00 0.00 49 1012.3
20260906020517 91 0.0 0.0 0.00 0.00 0.00 49 1012.2
20260906015517 92 0.0 0.0 0.00 0.00 0.00 48 1012.1
20260906014518 92 0.0 0.0 0.00 0.00 0.00 47 1012.1
20260906013518 93 0.0 0.0 0.00 0.00 0.00 46 1012.0
20260906012518 93 0.0 0.0 0.00 0.00 0.00 45 1011.9
20260906011517 93 0.0 0.0 0.00 0.00 0.00 45 1011.9
20260906010537 94 0.0 0.0 0.00 0.00 0.00 43 1011.8
20260906005517 95 0.0 0.0 0.00 0.00 0.00 42 1011.9
20260906004539 96 0.0 1.0 0.00 0.00 0.00 39 1012.0
20260906003517 98 121 1.0 2.0 0.00 0.00 0.00 37 1012.0
20260906002517 98 116 1.0 3.0 0.00 0.00 0.00 36 1012.0
20260906001517 99 125 3.0 7.0 0.00 0.00 0.00 35 1011.9
20260906000517 99 113 2.0 7.0 0.00 0.00 0.00 34 1011.9
20260905235517 99 116 3.0 7.0 0.00 0.00 0.00 35 1011.9
20260905234517 100 76 0.0 1.0 0.00 0.00 0.00 35 1011.9
20260905234017 100 28 1.0 7.0 0.00 0.00 0.00 35 1011.8
20260905233017 100 124 2.0 2.0 0.00 0.00 0.00 35 1011.7
20260905230517 100 127 3.0 9.0 0.00 0.00 0.00 36 1011.7
20260905225517 100 125 3.0 9.0 0.00 0.00 0.00 35 1011.7
20260905224517 100 120 4.0 9.0 0.00 0.00 0.00 36 1011.7
20260905223517 100 111 3.0 9.0 0.00 0.00 0.00 35 1011.8
20260905222517 100 125 2.0 6.0 0.00 0.00 0.00 36 1011.9
20260905221517 100 115 3.0 11.0 0.00 0.00 0.00 36 1011.9
20260905220517 102 98 2.0 7.0 0.00 0.00 0.00 35 1011.9
20260905215517 101 128 4.0 10.0 0.00 0.00 0.00 35 1012.1
20260905214517 100 154 4.0 10.0 0.00 0.00 0.00 35 1012.1
20260905213517 101 114 2.0 7.0 0.00 0.00 0.00 35 1012.2
20260905212517 100 116 4.0 10.0 0.00 0.00 0.00 37 1012.3
20260905211517 100 104 2.0 11.0 0.00 0.00 0.00 38 1012.5
20260905210518 101 123 5.0 11.0 0.00 0.00 0.00 37 1012.7
20260905205517 100 149 2.0 6.0 0.00 0.00 0.00 37 1012.9
20260905204517 100 106 3.0 8.0 0.00 0.00 0.00 39 1013.0
20260905203517 100 118 7.0 11.0 0.00 0.00 0.00 39 1013.2
20260905202516 100 149 5.0 10.0 0.00 0.00 0.00 36 1013.4
20260905201617 100 19 2.0 4.0 0.00 0.00 0.00 38 1013.5
20260905201017 99 89 2.0 5.0 0.00 0.00 0.00 39 1013.7
20260905193017 100 113 4.0 13.0 0.00 0.00 0.00 38 1014.2